World > North America > United States > New York

Hourly Port Ewen, NY Regional Weather

Feedback E-mail the Weather

Latest News

Port Ewen, NY Weather Maps

°F °C°F °C
Port Ewen Weather Map
UTC Time: 5/28/2022, 14:38
Your Time:

Port Ewen, NY Regional Weather

Expires:202205281500;;703067
ASUS41 KALY 281410
RWRALY

NEW YORK STATE HOURLY WEATHER ROUNDUP
NATIONAL WEATHER SERVICE ALBANY NY
1000 AM EDT SAT MAY 28 2022

NOTE: "FAIR" INDICATES FEW OR NO CLOUDS BELOW 12,000 FEET WITH NO
SIGNIFICANT WEATHER AND/OR NO OBSTRUCTIONS TO VISIBILITY.


NYZ032-033-038>043-046>054-057>066-NYZ062>081-082-084-281500-
EAST

  
CITY           SKY/WX    TMP DP  RH WIND       PRES   REMARKS
ALBANY         LGT RAIN  70  64  81 CALM      29.70F                  
GLENS FALLS    MOSUNNY   71  62  73 SW5       29.68F                  
POUGHKEEPSIE   CLOUDY    69  66  90 SW6       29.70S                  
NEWBURGH       CLOUDY    68  66  94 CALM      29.72R FOG              
MONTGOMERY     LGT RAIN  68  65  90 W5        29.71R                  
WHITE PLAINS   CLOUDY    69  64  84 W3        29.72S                  
ISLIP          CLOUDY    66  65  96 S7        29.73S FOG              
NEW YORK CITY  CLOUDY    70  63  78 SW6       29.71S                  
CENTRAL PARK   CLOUDY    68  65  90 MISG      29.75R                  
$$


SKY/WX - Weather  TMP - Temperature  DP - Dew Point  RH - Humidity
WIND - Wind Direction/Speed PRES - Barometric Pressure VSB - Visibility
WCI - Wind Chill Index E13G22 Wind - East Wind 13 mph/Gusts of 22 mph

Trending Headlines

Port Ewen Radar Loop



Port Ewen Quick Facts


National Two Day Weather Forecast


E-mail the Port Ewen Weather Forecast

Voice your opinion or tell us about page issues...